Date String (YYYY-MM-DD hh:mm:ss) UTC,Instrument flags,Ambient pressure (hPa),Sample flow (lpm),Bypass flow (lpm),Sample temperature (°C),Ambient temperature (°C),ASC tube jacket temperature (°C),LED temperature (°C),Box temperature (°C),Sample RH (%),Span deviation,Mass concentration (μg/m³),Mass concentration (μg/m³),Mass concentration (μg/m³)
DateTimeUTC,F1_M11,P_M11,Q1_M11,Q2_M11,T1_M11,T2_M11,T3_M11,T4_M11,T5_M11,U1_M11,ZSPAN_M11,X0_M11,X2_M11,X1_M11
2022-04-02 07:00:00,,0823.8,5.00,0.00,26.3,25.3,00.0,35.3,28.1,11.6,0000.0,0012.73,0004.28,0003.29
2022-04-02 07:01:00,,0823.8,4.99,0.00,26.3,25.3,00.0,35.3,28.1,11.5,0000.0,0012.16,0004.23,0003.28
2022-04-02 07:02:00,,0823.7,5.00,0.00,26.3,25.3,00.0,35.3,28.1,11.6,0000.0,0012.00,0004.20,0003.25
2022-04-02 07:03:00,,0823.7,5.00,0.00,26.3,25.3,00.0,35.3,28.1,11.6,0000.0,0012.01,0004.17,0003.23
2022-04-02 07:04:00,,0823.8,5.00,0.00,26.3,25.3,00.0,35.3,28.1,11.6,0000.0,0011.58,0004.18,0003.22
2022-04-02 07:05:00,,0823.8,5.00,0.00,26.3,25.3,00.0,35.3,28.1,11.6,0000.0,0011.15,0004.12,0003.21
2022-04-02 07:06:00,,0823.9,5.00,0.00,26.3,25.3,00.0,35.3,28.0,11.6,0000.0,0010.93,0004.05,0003.19
2022-04-02 07:07:00,,0823.9,5.00,0.00,26.2,25.3,00.0,35.2,28.1,11.6,0000.0,0010.35,0004.01,0003.18
2022-04-02 07:08:00,,0823.9,5.01,0.00,26.3,25.3,00.0,35.2,28.0,11.6,0000.0,0010.55,0003.98,0003.17
2022-04-02 07:09:00,,0823.9,5.00,0.00,26.3,25.3,00.0,35.2,28.0,11.6,0000.0,0010.50,0003.95,0003.16
2022-04-02 07:10:00,,0823.9,5.00,0.00,26.3,25.3,00.0,35.2,28.0,11.6,0000.0,0009.62,0003.93,0003.16
2022-04-02 07:11:00,,0823.9,5.00,0.00,26.3,25.3,00.0,35.2,28.1,11.7,0000.0,0009.67,0003.93,0003.15
2022-04-02 07:12:00,,0823.9,5.00,0.00,26.3,25.3,00.0,35.2,28.0,11.8,0000.0,0009.92,0003.93,0003.15
2022-04-02 07:13:00,,0823.9,5.00,0.00,26.2,25.3,00.0,35.2,28.1,11.8,0000.0,0010.22,0003.93,0003.15
2022-04-02 07:14:00,,0823.9,5.00,0.00,26.2,25.3,00.0,35.2,28.1,11.8,0000.0,0010.40,0003.89,0003.16
2022-04-02 07:15:00,,0824.0,5.00,0.00,26.3,25.3,00.0,35.2,28.0,11.8,0000.0,0010.32,0003.80,0003.15
2022-04-02 07:16:00,,0823.9,5.00,0.00,26.3,25.3,00.0,35.2,28.0,11.9,0000.0,0010.17,0003.80,0003.14
2022-04-02 07:17:00,,0823.9,4.99,0.00,26.2,25.3,00.0,35.2,28.0,11.9,0000.0,0009.99,0003.80,0003.12
2022-04-02 07:18:00,,0823.9,5.00,0.00,26.2,25.3,00.0,35.2,28.0,11.8,0000.0,0010.08,0003.78,0003.10
2022-04-02 07:19:00,,0823.9,5.00,0.00,26.2,25.3,00.0,35.2,28.0,11.9,0000.0,0009.78,0003.75,0003.10
2022-04-02 07:20:00,,0824.0,5.01,0.00,26.2,25.2,00.0,35.2,28.0,11.9,0000.0,0009.15,0003.71,0003.07
2022-04-02 07:21:00,,0824.0,5.00,0.00,26.2,25.2,00.0,35.2,28.0,11.9,0000.0,0009.12,0003.69,0003.04
2022-04-02 07:22:00,,0824.0,4.99,0.00,26.2,25.2,00.0,35.2,28.0,11.9,0000.0,0009.10,0003.68,0003.03
2022-04-02 07:23:00,,0824.0,4.99,0.00,26.2,25.2,00.0,35.2,27.9,11.9,0000.0,0009.47,0003.66,0003.01
2022-04-02 07:24:00,,0824.0,5.01,0.00,26.2,25.1,00.0,35.2,27.9,12.0,0000.0,0009.04,0003.61,0002.98
2022-04-02 07:25:00,,0824.0,5.00,0.00,26.2,25.1,00.0,35.1,27.9,11.9,0000.0,0009.04,0003.59,0002.94
2022-04-02 07:26:00,,0824.0,4.99,0.00,26.2,25.1,00.0,35.1,27.9,12.0,0000.0,0008.83,0003.58,0002.94
2022-04-02 07:27:00,,0824.0,5.00,0.00,26.1,25.1,00.0,35.1,27.9,12.0,0000.0,0008.79,0003.60,0002.94
2022-04-02 07:28:00,,0824.0,5.00,0.00,26.1,25.1,00.0,35.1,27.9,11.9,0000.0,0008.81,0003.59,0002.94
2022-04-02 07:29:00,,0824.0,5.00,0.00,26.1,25.1,00.0,35.1,27.9,12.0,0000.0,0009.57,0003.58,0002.94
2022-04-02 07:30:00,,0824.1,4.99,0.00,26.1,25.2,00.0,35.1,27.9,11.8,0000.0,0010.17,0003.60,0002.93
2022-04-02 07:31:00,,0824.0,5.00,0.00,26.1,25.1,00.0,35.1,27.9,11.9,0000.0,0010.66,0003.63,0002.94
2022-04-02 07:32:00,,0824.0,5.00,0.00,26.1,25.1,00.0,35.1,27.9,11.8,0000.0,0010.95,0003.67,0002.93
2022-04-02 07:33:00,,0824.0,4.99,0.00,26.1,25.1,00.0,35.1,27.9,11.7,0000.0,0011.16,0003.71,0002.92
2022-04-02 07:34:00,,0824.1,5.01,0.00,26.1,25.1,00.0,35.1,27.9,11.7,0000.0,0011.32,0003.76,0002.92
2022-04-02 07:35:00,,0824.0,5.02,0.00,26.1,25.1,00.0,35.1,27.9,11.7,0000.0,0011.33,0003.78,0002.92
2022-04-02 07:36:00,,0824.0,5.00,0.00,26.1,25.1,00.0,35.1,27.9,11.7,0000.0,0010.95,0003.78,0002.92
2022-04-02 07:37:00,,0824.1,4.99,0.00,26.1,25.1,00.0,35.1,27.9,11.7,0000.0,0010.91,0003.80,0002.91
2022-04-02 07:38:00,,0824.1,5.00,0.00,26.1,25.1,00.0,35.1,27.9,11.7,0000.0,0011.06,0003.85,0002.90
2022-04-02 07:39:00,,0824.0,5.00,0.00,26.1,25.0,00.0,35.1,27.8,11.6,0000.0,0011.16,0003.87,0002.89
2022-04-02 07:40:00,,0824.1,4.99,0.00,26.0,25.0,00.0,35.0,27.8,11.6,0000.0,0010.78,0003.90,0002.89
2022-04-02 07:41:00,,0824.1,4.99,0.00,26.0,25.1,00.0,35.0,27.8,11.5,0000.0,0010.49,0003.92,0002.88
2022-04-02 07:42:00,,0824.0,5.00,0.00,26.0,25.0,00.0,35.0,27.8,11.5,0000.0,0009.96,0003.90,0002.85
2022-04-02 07:43:00,,0824.0,4.99,0.00,26.0,25.0,00.0,35.0,27.8,11.5,0000.0,0009.77,0003.90,0002.84
2022-04-02 07:44:00,,0824.0,5.00,0.00,26.0,25.0,00.0,35.0,27.8,11.5,0000.0,0010.26,0003.91,0002.83
2022-04-02 07:45:00,,0824.1,5.00,0.00,26.0,25.0,00.0,35.0,27.8,11.5,0000.0,0010.82,0003.92,0002.83
2022-04-02 07:46:00,,0824.1,5.00,0.00,26.0,25.0,00.0,35.0,27.8,11.5,0000.0,0010.91,0003.95,0002.83
2022-04-02 07:47:00,,0824.1,5.00,0.00,26.0,25.0,00.0,35.0,27.8,11.5,0000.0,0011.07,0003.98,0002.82
2022-04-02 07:48:00,,0824.1,5.00,0.00,26.0,25.0,00.0,35.0,27.7,11.5,0000.0,0011.07,0003.97,0002.82
2022-04-02 07:49:00,,0824.1,5.01,0.00,26.0,25.0,00.0,35.0,27.7,11.6,0000.0,0010.92,0003.90,0002.79
2022-04-02 07:50:00,,0824.1,5.00,0.00,25.9,25.0,00.0,34.9,27.7,11.6,0000.0,0011.04,0003.88,0002.77
2022-04-02 07:51:00,,0824.1,5.00,0.00,26.0,25.0,00.0,34.9,27.8,11.6,0000.0,0010.91,0003.83,0002.74
2022-04-02 07:52:00,,0824.1,5.00,0.00,25.9,25.0,00.0,34.9,27.8,11.6,0000.0,0010.47,0003.80,0002.73
2022-04-02 07:53:00,,0824.2,5.00,0.00,25.9,25.0,00.0,34.9,27.7,11.6,0000.0,0010.93,0003.83,0002.74
2022-04-02 07:54:00,,0824.1,5.00,0.00,25.9,24.9,00.0,34.9,27.7,11.6,0000.0,0010.90,0003.79,0002.73
2022-04-02 07:55:00,,0824.1,4.99,0.00,25.9,24.9,00.0,34.9,27.7,11.6,0000.0,0010.33,0003.75,0002.71
2022-04-02 07:56:00,,0824.0,5.01,0.00,25.9,24.9,00.0,34.9,27.7,11.7,0000.0,0009.23,0003.67,0002.70
2022-04-02 07:57:00,,0824.1,5.00,0.00,25.9,24.9,00.0,34.9,27.7,11.7,0000.0,0009.12,0003.61,0002.69
2022-04-02 07:58:00,,0824.1,5.00,0.00,25.9,24.9,00.0,34.9,27.7,11.7,0000.0,0009.34,0003.62,0002.69
2022-04-02 07:59:00,,0824.1,5.00,0.00,25.9,24.9,00.0,34.9,27.7,11.6,0000.0,0009.73,0003.63,0002.70
